Weather History for Port Angeles, WA

Change the Weather History Date:

Monday, November 26, 2012

  Actual Average Record
Temperature  
Mean Temperature 38 °F -  
Max Temperature 44 °F 47 °F 67 °F (1950)
Min Temperature 32 °F 35 °F 19 °F (1985)
Degree Days  
Heating Degree Days 27    
Moisture  
Dew Point 35 °F    
Average Humidity 81    
Maximum Humidity 92    
Minimum Humidity 71    
Precipitation  
Precipitation 0.00 in - - ()
Sea Level Pressure  
Sea Level Pressure 30.15 in    
Wind  
Wind Speed 6 mph (ESE)    
Max Wind Speed 10 mph    
Max Gust Speed 16 mph    
Visibility 10 miles    
Events      
Averages and records for this station are not official NWS values.
T = Trace of Precipitation, MM = Missing Value Source: NWS Daily Summary

Daily Weather History Graph

Daily Weather History Graph

Search for Another Location

Airport:

Trip Planner

Search our weather history database for the weather conditions in past years. The results will help you decide how hot, cold, wet, or windy it might be!

Date:

Astronomy

Nov. 26, 2012 Rise Set
Actual Time 7:37 AM PST 4:25 PM PST
Civil Twilight 7:02 AM PST 5:00 PM PST
Nautical Twilight 6:23 AM PST 5:39 PM PST
Astronomical Twilight 5:46 AM PST 6:16 PM PST
Moon 3:24 PM PST (11/26) 5:48 AM PST (11/26)
Length of Visible Light 9h 58m
Length of Day
8h 47m
Waxing Gibbous, 97% of the Moon is Illuminated
Nov 26
Waxing Gibbous
Nov 28
Full
Dec 6
Last Quarter
Dec 13
New
Dec 19
First Quarter

Hourly Weather History & Observations

Time (PST) Temp. Windchill Dew Point Humidity Pressure Visibility Wind Dir Wind Speed Gust Speed Precip Events Conditions
12:53 AM 42.1 °F 38.4 °F 37.0 °F 82% 30.27 in 10.0 mi Variable 5.8 mph - N/A   Overcast
1:19 AM 42.1 °F 37.7 °F 37.0 °F 82% 30.24 in 10.0 mi ENE 6.9 mph 16.1 mph N/A   Overcast
1:53 AM 42.1 °F 37.1 °F 37.0 °F 82% 30.22 in 10.0 mi East 8.1 mph 16.1 mph N/A   Overcast
2:02 AM 43.0 °F 37.7 °F 37.0 °F 80% 30.22 in 10.0 mi ESE 9.2 mph - N/A   Overcast
2:53 AM 42.1 °F 37.1 °F 37.9 °F 85% 30.22 in 10.0 mi ENE 8.1 mph - N/A   Overcast
3:15 AM 42.1 °F 37.7 °F 37.9 °F 85% 30.22 in 10.0 mi ENE 6.9 mph - N/A   Overcast
3:37 AM 43.0 °F 37.2 °F 37.0 °F 80% 30.21 in 10.0 mi East 10.4 mph - N/A   Overcast
3:53 AM 43.0 °F 38.8 °F 37.0 °F 80% 30.22 in 10.0 mi East 6.9 mph - N/A   Overcast
4:53 AM 42.1 °F 39.2 °F 36.0 °F 79% 30.20 in 10.0 mi East 4.6 mph - N/A   Overcast
5:00 AM 42.1 °F 37.1 °F 36.0 °F 79% 30.19 in 10.0 mi SE 8.1 mph - N/A   Overcast
5:07 AM 42.1 °F 39.2 °F 36.0 °F 79% 30.19 in 10.0 mi ESE 4.6 mph - N/A   Overcast
5:16 AM 42.1 °F 40.2 °F 36.0 °F 79% 30.19 in 10.0 mi East 3.5 mph - N/A   Overcast
5:53 AM 42.1 °F 38.4 °F 36.0 °F 79% 30.19 in 10.0 mi East 5.8 mph - N/A   Overcast
6:08 AM 42.1 °F 38.4 °F 36.0 °F 79% 30.18 in 10.0 mi SE 5.8 mph - N/A   Overcast
6:53 AM 41.0 °F 36.4 °F 35.1 °F 79% 30.18 in 10.0 mi ESE 6.9 mph - N/A   Overcast
7:20 AM 39.9 °F 36.7 °F 35.1 °F 83% 30.16 in 10.0 mi SE 4.6 mph - N/A   Overcast
7:53 AM 39.0 °F 35.7 °F 34.0 °F 82% 30.16 in 10.0 mi SE 4.6 mph - N/A   Mostly Cloudy
8:53 AM 42.1 °F - 35.1 °F 76% 30.16 in 10.0 mi Calm Calm - N/A   Overcast
9:53 AM 42.1 °F 39.2 °F 35.1 °F 76% 30.15 in 10.0 mi SE 4.6 mph - N/A   Mostly Cloudy
10:53 AM 43.0 °F - 35.1 °F 74% 30.14 in 10.0 mi Calm Calm - N/A   Mostly Cloudy
11:53 AM 44.1 °F 39.0 °F 35.1 °F 71% 30.12 in 10.0 mi East 9.2 mph - N/A   Mostly Cloudy
12:53 PM 44.1 °F 40.1 °F 35.1 °F 71% 30.12 in 10.0 mi East 6.9 mph - N/A   Overcast
1:53 PM 44.1 °F 42.5 °F 35.1 °F 71% 30.10 in 10.0 mi Variable 3.5 mph - N/A   Overcast
2:28 PM 43.0 °F 39.5 °F 34.0 °F 71% 30.08 in 10.0 mi East 5.8 mph - N/A   Scattered Clouds
2:53 PM 42.1 °F 38.4 °F 34.0 °F 73% 30.09 in 10.0 mi East 5.8 mph - N/A   Clear
3:53 PM 41.0 °F 37.1 °F 34.0 °F 76% 30.09 in 10.0 mi East 5.8 mph - N/A   Clear
4:53 PM 37.9 °F 35.5 °F 34.0 °F 86% 30.09 in 10.0 mi SE 3.5 mph - N/A   Clear
5:53 PM 35.1 °F - 33.1 °F 92% 30.08 in 10.0 mi Calm Calm - N/A   Clear
6:53 PM 33.1 °F - 30.9 °F 92% 30.08 in 10.0 mi Calm Calm - N/A   Clear
7:53 PM 32.0 °F 28.7 °F 30.0 °F 92% 30.07 in 10.0 mi South 3.5 mph - N/A   Clear
8:53 PM 33.1 °F 30.0 °F 30.9 °F 92% 30.08 in 10.0 mi SSW 3.5 mph - N/A   Clear
9:53 PM 35.1 °F 30.1 °F 32.0 °F 89% 30.09 in 10.0 mi SW 5.8 mph - N/A   Overcast
10:53 PM 36.0 °F 31.1 °F 33.1 °F 89% 30.10 in 10.0 mi SW 5.8 mph - N/A   Overcast
11:53 PM 36.0 °F 29.6 °F 33.1 °F 89% 30.09 in 10.0 mi WSW 8.1 mph - N/A   Overcast